sat.trackr.live / text

‹ back to catalog

STARLINK-34746

NORAD 64847 · 2025-152F

PAYLOAD ACTIVE UNKNOWN

§ Identity

Operator
Country
US
Launch date
2025-07-19
Launch site
AFWTR
Launch vehicle
Mass (kg)
RCS (m²)

Purposes: comms

External: N2YO · Heavens-Above · Gunter

§ Orbital elements

Epoch: 2026-09-20T13:09:45.677376Z

Period
93.91 min
Inclination
97.2847°
Eccentricity
0.0001466
Mean motion
15.33456442 rev/d
Perigee alt
464.5 km
Apogee alt
466.5 km
Semi-major
6,843.6 km
B*
4.3164e-4
RAAN
114.1429°
Arg perigee
61.1178°
Mean anomaly
299.0211°
Rev number
6,483

§ Raw data

STARLINK-347461 64847U 25152F   26263.54844534  .00013891  00000+0  43164-3 0  99922 64847  97.2847 114.1429 0001466  61.1178 299.0211 15.33456442 64833

JSON: /api/v1/satellites/64847 · /tle

For live sub-satellite position, see the globe view (requires WebGL).

§ Visibility from observer

Set your observer location to see the next 7 days of passes ≥ 10°. The values pass through the URL so the page stays shareable.

No JS? Fill the form by hand. The geolocation button needs JavaScript.